Weather in Pepelino

Russia / Kurgan Oblast     55°03′21″N   64°08′41″E
temp.,
°C
wind,
m/s
gust,
m/s
humid.,
%
clouds,
%
prec.,
mm/h
press.,
hPa
HPBL,
m
16 may, sun
sun1623:00+21wnw4643100 0.0 101975
02:00+20wnw464758 0.0 1019100
05:00+18wnw365726 0.0 102080
08:00+24wnw454852 0.0 1020255
11:00+29wnw5534100 0.0 10201060
14:00+32wnw68235 0.0 10193113
17:00+32nw582166 0.0 10193552
20:00+27w123456 0.0 101811
17 may, mon
mon1723:00+23wnw493710 0.0 1018122
02:00+20w4104810 0.0 1019151
05:00+18w4105977 0.0 1019164
08:00+24w57441 0.0 1019282
11:00+29w55290 0.0 10181625
14:00+31w68235 0.0 10173446
17:00+26wnw161742100 0.0 10171033
20:00+23sw594693 0.1 1015133
18 may, tue
tue1823:00+20w34470 0.1 101547
02:00+18wnw345979 0.2 101658
05:00+18wnw3468100 0.2 101565
08:00+21w51063100 0.0 1014371
11:00+24nw6850100 0.0 10141010
14:00+27nw79311 0.0 10132639
17:00+22nne1012521 0.0 1013630
20:00+19nne712595 0.0 10161053
19 may, wed
wed1923:00+14nne711715 0.0 1019756
02:00+11nne6117650 0.0 1021711
05:00+9nne511770 0.0 1022511
08:00+13ne68590 0.0 1024843
11:00+17ne6739100 0.0 10241401
14:00+19ne56325 0.0 10241712
17:00+20ne45314 0.0 10231823
20:00+16e22475 0.0 102314
20 may, thu
thu2023:00+13e11535 0.0 102510
02:00+12ssw11545 0.0 102510
05:00+11wsw23599 0.0 102521
08:00+17w454558 0.0 1025388
11:00+21w44345 0.0 10241426
14:00+24w45295 0.0 10221662
17:00+24w56280 0.0 10211731
20:00+20w33420 0.0 102026